This demonstration page uses our WeatherBlox Daily Observations layout. Learn more.

Left ArrowRight Arrow

Hourly Observations for February 29, 2016

Temp ( °F °C ) Dew Point ( °F °C ) Humidity (%) Winds ( mph kmh ) Pressure ( in mb ) Visibility ( mi km ) Precip ( " mm )
12:54 am 00:54 Clear 32 0 26 -3.3 79 79 S 5 7 30.01 1016 10 16 0.00 0.00
1:54 am 01:54 Clear 31 -0.6 25 -3.9 79 79 S 7 11 29.99 1016 10 16 0.00 0.00
2:54 am 02:54 Clear 33 0.6 26 -3.3 75 75 SSE 7 11 29.95 1014 10 16 0.00 0.00
3:54 am 03:54 Clear 33 0.6 26 -3.3 75 75 SE 3 6 29.93 1014 10 16 0.00 0.00
4:54 am 04:54 Clear 30 -1.1 25 -3.9 82 82 S 8 13 29.91 1013 10 16 0.00 0.00
5:54 am 05:54 Clear 37 2.8 27 -2.8 67 67 SW 8 13 29.90 1013 10 16 0.00 0.00
6:54 am 06:54 Clear 38 3.3 28 -2.2 68 68 SW 12 19 29.89 1012 10 16 0.00 0.00
7:54 am 07:54 Sunny 42 5.6 30 -1.1 62 62 SW 10 17 29.91 1013 10 16 0.00 0.00
8:54 am 08:54 Sunny 48 8.9 31 -0.6 52 52 SW 14 22 29.89 1012 10 16 0.00 0.00
9:54 am 09:54 Sunny 53 11.7 32 0 45 45 SW 16 26 29.89 1012 10 16 0.00 0.00
10:54 am 10:54 Sunny 58 14.4 31 -0.6 36 36 SSW 17 28 29.85 1011 10 16 0.00 0.00
11:54 am 11:54 Sunny 62 16.7 31 -0.6 31 31 SW 14 22 29.83 1010 10 16 0.00 0.00
12:54 pm 12:54 Sunny 64 17.8 31 -0.6 29 29 SW 7 11 29.80 1009 10 16 0.00 0.00
1:54 pm 13:54 Sunny 64 17.8 31 -0.6 29 29 Calm 29.78 1008 10 16 0.00 0.00
2:54 pm 14:54 Sunny 65 18.3 32 0 29 29 NNW 9 15 29.76 1008 10 16 0.00 0.00
3:54 pm 15:54 Sunny 49 9.4 34 1.1 56 56 NNE 25 41 29.81 1009 10 16 0.00 0.00
4:54 pm 16:54 Mostly Sunny 45 7.2 32 0 61 61 NNE 20 31 29.83 1010 10 16 0.00 0.00
5:54 pm 17:54 Sunny 42 5.6 31 -0.6 65 65 NNE 22 35 29.86 1011 10 16 0.00 0.00
6:54 pm 18:54 Clear 38 3.3 26 -3.3 62 62 N 16 26 29.89 1012 10 16 0.00 0.00
7:54 pm 19:54 Clear 35 1.7 24 -4.4 64 64 N 16 26 29.91 1013 10 16 0.00 0.00
8:54 pm 20:54 Clear 34 1.1 23 -5 64 64 NNW 22 35 29.99 1016 10 16 0.00 0.00
9:14 pm 21:14 Mostly Cloudy 34 1 21 -6 60 60 N 25 41 30.03 1017 10 16 0.00 0.00
9:54 pm 21:54 Cloudy 32 0 20 -6.7 61 61 NNW 20 31 30.02 1017 10 16 0.00 0.00
10:33 pm 22:33 Partly Cloudy 30 -1.1 19 -7.2 64 64 N 17 28 30.03 1017 10 16 0.00 0.00
10:54 pm 22:54 Clear 30 -1.1 18 -7.8 61 61 N 20 31 30.00 1016 10 16 0.00 0.00
11:54 pm 23:54 Mostly Cloudy 29 -1.7 17 -8.3 61 61 N 21 33 30.02 1017 10 16 0.00 0.00

Powered by AerisWeather